Temp
16 16 16 17 17 17 17 17 17 17 17 17 17 17 17 16 16 16 16 16 16 16 16 16 16 17 16 16 16 16 16 15
16 16 16 17 16 16 16 16 16 16 16 16 16 16 16 16 16 16 15 16 15 16 15 15 15 16 16 15 15 15 15 14
15 15 15 15 16 16 16 15 16 15 15 15 15 15 15 15 15 15 15 15 15 15 15 15 15 15 15 15 14 14 13 13
15 15 14 15 15 15 15 15 15 15 15 15 15 15 14 15 15 15 15 15 15 15 15 15 14 14 14 14 14 13 13 12
15 15 15 15 15 14 14 14 14 15 14 14 14 14 14 14 14 14 14 14 14 15 14 15 14 14 13 13 13 13 12 12
15 15 15 15 14 14 14 14 14 14 14 14 14 14 14 14 13 13 13 13 14 14 14 14 14 14 13 12 12 12 12 12
14 14 14 14 14 14 14 14 14 14 14 14 14 14 13 13 13 13 12 13 13 13 13 13 13 13 13 12 12 11 11 11
14 14 14 14 14 14 14 14 14 14 13 13 13 13 13 13 12 12 12 12 12 12 12 13 13 13 13 12 11 10 10 11
14 13 13 13 13 13 13 13 13 13 13 13 13 12 12 12 12 11 11 11 11 12 12 12 13 12 12 11 10 10 10 10
13 13 13 13 13 13 13 13 13 13 13 12 12 12 12 11 11 11 11 11 11 11 11 11 11 11 10 9 9 9 9 9
13 13 13 13 13 13 13 13 13 12 12 12 12 11 11 11 11 11 11 11 10 10 10 9 9 9 9 9 9 9 8 8
14 13 13 13 13 12 12 12 12 12 12 12 12 11 11 11 10 11 11 11 10 10 9 9 8 8 8 8 7 7 7 7
14 13 13 13 12 12 12 11 11 12 12 12 12 11 11 11 10 10 11 11 9 9 9 8 7 8 7 7 6 6 6 6
14 14 13 13 13 13 12 11 11 12 12 11 11 11 10 10 10 10 9 10 9 8 8 8 7 8 8 6 4 5 5 5
14 14 14 14 14 13 12 11 10 11 11 11 10 10 10 10 10 9 9 9 8 7 7 8 6 6 7 7 3 3 3 4
14 14 14 14 14 13 13 12 11 11 11 11 10 10 9 9 9 8 8 7 7 7 6 7 6 6 5 5 5 4 1 2
14 14 14 14 13 13 13 13 12 12 11 10 9 9 9 9 9 8 7 6 6 6 6 6 6 5 5 4 4 4 3 2
14 14 14 14 14 13 13 13 12 11 11 10 9 8 8 8 7 7 7 6 5 5 5 5 4 4 4 4 4 3 2 2
14 14 14 14 14 14 13 13 12 12 11 10 9 8 8 7 7 7 6 6 5 5 4 4 4 4 3 3 3 2 2 2
14 14 14 14 14 14 14 13 13 13 12 11 10 10 9 8 7 6 6 5 5 4 4 4 3 3 3 2 2 2 1 1
Height
850 852 853 854 855 857 858 858 858 858 857 855 856 855 855 856 856 854 855 855 854 854 853 853 851 851 850 850 851 851 850 850
852 855 855 856 856 858 859 859 861 861 861 860 858 859 859 859 854 856 858 857 857 857 856 854 853 853 853 854 853 853 853 853
856 857 858 859 860 860 860 861 862 862 862 864 861 860 861 860 858 860 859 859 861 859 859 857 856 856 857 856 856 856 856 857
858 859 860 861 862 863 863 862 863 862 864 865 863 861 861 860 861 862 862 862 862 861 861 860 860 859 859 859 858 859 859 860
860 862 863 864 864 865 866 865 864 863 864 865 865 863 863 862 863 863 864 864 863 863 862 862 861 862 862 862 862 861 861 862
859 862 862 864 866 866 868 868 867 865 867 868 866 864 864 864 864 865 866 866 865 864 864 864 863 863 864 865 865 864 865 865
860 862 864 865 867 868 870 869 869 868 868 869 868 866 866 866 867 867 867 867 867 866 866 866 865 864 866 867 868 868 868 868
861 863 865 867 868 869 869 871 870 869 870 870 869 869 869 868 869 869 869 869 868 867 867 867 867 867 867 868 870 871 871 870
861 865 868 869 871 872 869 871 875 874 869 871 870 871 872 872 872 873 873 872 871 869 869 868 869 868 869 871 872 873 874 874
863 865 868 870 872 875 873 871 871 875 875 874 874 873 874 874 875 875 874 873 873 871 870 869 869 870 871 874 875 876 877 877
862 866 868 869 870 875 876 873 873 875 877 877 877 876 876 877 877 876 876 875 874 874 872 872 872 873 875 877 879 879 879 880
862 866 868 870 871 875 877 875 874 874 876 877 878 879 879 878 879 879 878 876 876 876 876 876 877 878 879 881 883 883 883 882
861 862 866 870 871 875 877 878 876 876 876 879 880 880 881 879 879 880 879 878 878 880 880 881 882 882 882 885 887 886 886 886
860 862 864 867 869 873 876 877 878 877 877 880 881 880 882 880 880 879 881 881 881 881 882 881 883 883 882 884 888 889 888 888
857 860 863 865 869 871 874 877 878 877 878 880 881 881 883 882 880 881 881 881 883 883 883 882 882 882 881 881 886 887 886 887
857 860 862 865 867 869 871 872 875 877 877 879 882 881 882 882 881 882 882 883 884 883 884 883 883 884 883 882 883 883 886 887
853 857 860 862 865 867 869 873 875 876 876 878 881 881 882 882 883 884 883 884 885 885 884 885 885 885 885 885 885 885 885 886
850 854 856 859 861 865 867 869 872 874 874 875 879 880 880 882 882 883 884 884 886 886 887 887 886 886 886 886 885 886 886 887
845 849 852 855 857 860 863 866 869 869 871 873 876 879 880 880 881 882 884 885 886 886 886 886 888 888 888 888 887 887 888 888
839 842 847 850 852 855 858 862 865 866 868 871 874 875 878 879 879 880 882 884 885 885 886 887 888 889 890 890 890 889 889 889
Wind_Speed
19 18 16 15 16 17 19 19 19 21 21 21 21 20 19 18 19 21 20 20 20 19 19 18 16 14 15 16 19 19 20 22
19 18 17 18 19 18 17 17 17 18 18 19 19 20 19 18 20 19 18 20 20 21 23 20 19 18 19 19 20 20 21 22
19 18 17 17 16 15 14 13 12 14 15 15 19 20 19 20 20 17 18 17 15 17 19 22 20 20 19 20 21 22 23 23
15 15 14 14 14 11 11 13 14 16 16 18 18 19 20 20 19 17 18 17 20 19 18 20 20 22 21 20 23 25 26 24
14 11 12 11 11 11 13 16 18 20 18 16 17 18 18 18 17 17 16 16 17 18 19 17 18 19 19 20 23 25 27 26
13 11 12 11 13 16 18 19 20 21 19 15 15 17 17 18 17 15 15 15 15 16 18 19 16 17 16 19 22 25 26 25
11 12 13 15 16 18 18 19 18 19 18 16 14 15 16 14 16 15 14 12 13 14 15 17 19 18 17 19 24 26 24 24
13 15 16 18 19 19 19 18 18 19 17 15 14 13 13 14 16 16 13 12 13 13 15 14 16 16 18 21 23 23 24 24
17 18 18 18 20 19 20 18 16 17 16 13 14 13 13 14 16 15 13 11 11 12 13 12 13 16 21 24 22 24 24 24
18 21 21 22 20 17 18 17 15 14 13 12 13 13 11 12 13 15 13 11 13 15 15 14 17 25 31 29 29 27 25 25
25 24 24 23 21 17 15 16 15 14 12 12 12 12 11 10 13 13 12 13 15 17 18 19 27 30 30 28 26 25 24 23
27 25 23 22 21 18 15 16 16 14 12 11 9 8 7 8 10 11 10 12 15 16 20 22 27 28 31 29 27 24 23 22
27 25 26 27 25 21 17 15 14 13 11 8 6 5 4 5 7 9 10 11 13 14 18 22 23 25 27 23 21 20 19 18
27 28 31 30 25 20 17 17 12 12 10 6 4 4 4 6 7 8 9 9 10 11 10 15 14 6 5 4 2 3 14 16
32 32 32 28 24 21 19 13 15 13 11 7 6 5 4 4 5 6 7 7 8 9 9 8 8 12 8 3 2 3 1 3
33 32 31 28 25 23 23 20 17 14 12 10 8 6 5 5 4 4 6 6 7 8 7 8 6 6 8 11 10 4 2 1
34 33 31 30 28 26 24 20 17 16 14 12 11 9 6 4 4 4 5 6 6 6 6 6 6 7 6 3 6 7 8 3
35 34 33 31 30 28 28 25 22 20 19 17 15 12 9 7 5 4 4 4 6 6 6 5 6 6 6 6 5 4 4 4
38 37 36 33 30 31 33 29 26 24 23 21 19 15 14 11 8 7 6 5 5 6 5 5 4 4 5 6 5 5 3 3
40 40 38 35 33 34 33 30 29 28 25 23 21 18 14 12 10 8 7 6 6 7 6 4 3 4 5 3 3 3 2 2
Wind_Direction
132 127 136 134 123 120 111 104 101 100 101 99 95 92 88 87 77 70 67 66 65 64 62 59 58 57 67 76 78 76 74 69
132 127 131 131 127 120 116 112 106 103 100 97 94 90 90 88 82 77 74 71 71 72 69 70 68 69 80 85 83 80 77 73
128 128 127 129 128 125 121 111 113 110 101 98 98 95 91 85 81 80 74 72 74 73 72 74 77 85 89 89 86 85 84 82
132 132 130 132 129 128 124 126 118 111 108 103 100 96 89 83 80 75 75 75 77 77 81 77 80 89 93 93 93 93 90 85
138 139 139 136 132 128 120 121 116 109 110 107 100 92 83 78 75 70 68 70 75 75 76 78 83 87 92 96 95 93 92 88
141 149 149 138 130 126 121 117 114 111 106 104 96 87 77 71 64 64 63 64 70 72 72 75 86 96 95 99 98 97 96 93
149 155 147 137 134 128 125 119 114 111 104 91 79 74 72 68 68 63 60 56 66 68 69 80 85 96 98 110 104 100 100 99
152 149 144 139 135 133 126 121 117 112 102 87 72 69 75 75 66 60 61 58 66 65 63 76 83 86 102 120 115 103 100 103
155 151 149 144 137 133 128 120 111 101 96 88 82 77 75 68 65 67 70 70 71 71 67 81 93 95 108 118 114 111 102 98
159 154 149 143 137 135 128 122 114 102 100 94 83 78 71 73 71 69 68 71 67 64 64 76 98 111 112 109 108 104 98 92
159 157 152 149 143 141 132 121 114 106 101 91 76 71 69 68 68 70 64 66 64 58 65 94 110 111 112 107 105 101 97 92
161 163 164 160 150 147 140 129 119 112 99 89 79 62 64 71 74 70 65 65 68 69 81 107 111 110 106 98 95 94 91 86
172 175 172 167 159 154 148 136 129 114 105 95 83 73 77 91 83 72 63 59 64 75 92 111 109 110 103 92 86 85 84 78
181 176 171 172 172 168 162 152 139 124 118 114 99 89 102 102 91 81 69 65 70 80 95 102 87 145 165 135 148 93 75 72
182 179 177 179 180 173 165 161 151 142 143 146 139 115 114 114 100 92 88 81 77 71 80 103 117 72 83 155 120 198 159 119
188 188 187 186 188 183 181 177 172 176 165 162 160 147 147 129 117 112 104 102 97 86 82 84 114 117 84 75 82 94 139 352
195 195 193 192 193 199 194 195 191 179 177 182 182 166 162 148 158 143 125 123 118 104 92 84 85 83 88 114 85 75 63 92
196 197 197 196 197 207 210 204 198 190 190 194 192 186 180 178 172 163 157 149 141 128 101 93 95 96 92 80 80 71 54 64
197 199 202 204 211 216 214 213 210 208 207 202 197 198 196 193 192 184 182 167 162 155 134 118 116 112 110 99 93 92 82 44
199 202 207 210 214 212 212 215 219 218 221 212 213 212 210 202 197 189 186 179 181 176 167 147 131 131 142 122 110 119 84 63